User: anonymous
Location: Alberta Star Party
(51.6612°N, 112.9089°W)
Time: 06:25:47
(UTC-06:00)
Language:

AO-Echo - Orbit

View from above orbital plane
View from above orbital plane
View from above satellite
View from above satellite

Ground track
Ground track

The orbit data is extracted from the following two-line orbital elements,

1 28375U 04025K   14204.44206000  .00000022  00000-0  19901-4 0  8934
2 28375 098.2523 150.1218 0082070 242.2298 117.0553 14.41404357529124
Epoch (UTC): 23 July 2014 10:36:33
Eccentricity: 0.0082070
inclination: 98.2523°
perigee height: 695 km
apogee height: 812 km
right ascension of ascending node: 150.1218°
argument of perigee: 242.2298°
revolutions per day: 14.41404357
mean anomaly at epoch: 117.0553°
orbit number at epoch: 52912

The dashed part of the orbit path shows where the satellite is in the earth's shadow,  

DLR